EST,Max TemperatureF,Mean TemperatureF,Min TemperatureF,Max Dew PointF,MeanDew PointF,Min DewpointF,Max Humidity, Mean Humidity, Min Humidity, Max Sea Level PressureIn, Mean Sea Level PressureIn, Min Sea Level PressureIn, Max VisibilityMiles, Mean VisibilityMiles, Min VisibilityMiles, Max Wind SpeedMPH, Mean Wind SpeedMPH, Max Gust SpeedMPH,PrecipitationIn, CloudCover, Events, WindDirDegrees
2012-1-1,55,41,26,45,29,23,100,80,59,30.13,29.99,29.75,10,4,0,28,7,38,0.17,6,Fog-Rain-Snow,264
2012-1-2,31,25,19,25,16,10,88,73,57,30.06,29.95,29.87,10,4,0,26,10,45,0.08,8,Fog-Snow,279
2012-1-3,19,14,9,13,9,3,88,75,61,30.36,30.10,29.97,10,3,0,23,12,35,0.02,8,Fog-Snow,290
2012-1-4,35,19,2,25,12,-3,91,58,24,30.36,30.15,29.97,10,8,1,15,4,23,0.03,5,Snow,211
2012-1-5,37,31,25,23,21,18,72,62,51,30.12,30.04,29.94,10,10,10,8,6,18,0.00,7,,252
2012-1-6,58,43,28,29,26,24,85,58,30,30.03,29.94,29.88,10,10,10,17,5,25,0.00,0,,194
2012-1-7,55,40,24,44,34,22,78,60,41,30.17,29.96,29.85,10,10,7,18,6,25,T,4,Rain,259
2012-1-8,43,32,20,29,23,18,96,71,45,30.37,30.30,30.18,10,9,7,8,1,12,0.00,1,,315
2012-1-9,41,33,24,35,29,23,100,85,70,30.30,30.17,30.02,10,9,4,12,2,15,T,6,,174
2012-1-10,47,35,22,28,24,21,96,71,45,30.13,30.08,30.01,10,9,2,14,3,20,0.00,0,,255
2012-1-11,48,34,20,40,32,18,96,84,71,30.04,29.77,29.48,10,7,2,20,3,29,0.10,6,Rain,157
2012-1-12,49,40,31,43,37,27,100,88,76,29.55,29.48,29.40,10,6,1,21,5,30,0.07,7,Rain-Snow,219
2012-1-13,31,24,16,27,12,7,92,77,62,30.09,29.75,29.51,7,2,0,25,12,37,0.02,8,Fog-Snow,247
2012-1-14,25,20,14,16,13,10,88,74,60,30.19,30.10,29.97,10,5,1,16,5,23,T,8,Snow,245
2012-1-15,24,15,6,16,11,2,92,76,60,30.58,30.36,30.09,10,6,1,7,1,9,T,6,Snow,323
2012-1-16,52,28,3,37,16,-1,92,59,26,30.53,30.33,30.07,10,8,5,20,4,30,0.05,4,Rain,173
2012-1-17,58,48,38,46,42,31,92,77,62,30.06,29.87,29.72,10,8,2,33,10,48,0.62,7,Rain,228
2012-1-18,39,32,24,28,17,10,78,64,50,30.19,30.11,29.97,10,7,1,23,8,31,T,8,Snow,290
2012-1-19,40,27,14,22,11,3,88,55,22,30.16,30.04,29.92,10,10,6,21,7,37,T,5,Snow,211
2012-1-20,39,32,24,35,24,21,89,75,61,30.22,30.09,29.95,10,7,2,14,3,21,0.11,7,Rain-Snow,298
2012-1-21,42,36,29,39,32,26,100,90,79,30.24,29.98,29.75,10,5,1,14,5,17,0.05,8,Rain-Snow,333
2012-1-22,48,36,24,34,27,21,100,78,56,30.29,30.20,30.13,10,5,0,17,6,25,0.00,4,Fog,157
2012-1-23,56,48,39,45,40,34,86,73,59,30.13,29.93,29.76,10,10,8,20,10,28,T,3,Rain,182
2012-1-24,51,41,30,34,31,27,82,64,46,30.33,30.16,29.99,10,10,10,17,6,24,0.00,5,,266
2012-1-25,55,41,27,33,28,20,92,59,26,30.40,30.29,30.15,10,7,1,9,2,13,T,5,Rain,288
2012-1-26,59,50,41,52,45,33,93,82,70,30.14,29.86,29.57,10,5,0,15,2,21,0.06,8,Fog-Rain,144
2012-1-27,61,48,34,51,38,28,86,79,71,30.09,29.76,29.47,10,8,2,31,11,45,0.37,8,Rain,264
2012-1-28,44,37,29,34,25,11,92,65,38,30.26,30.07,29.97,10,9,2,28,7,36,0.04,4,Rain,248
2012-1-29,42,31,20,28,17,10,78,54,29,30.30,30.20,30.07,10,8,1,30,10,49,T,4,Snow,259
2012-1-30,49,33,17,22,17,12,84,58,31,30.40,30.31,30.25,10,10,10,16,6,24,0.00,1,,204
2012-1-31,63,52,40,32,21,16,67,42,17,30.30,30.20,30.11,10,10,10,20,7,28,T,3,,195